Regional Weather Roundup
Issued by NWS

Home | Current Version | Previous Version | Text Only | Print | Product List | Glossary Off
Versions: 1 2 3 4 5 6 7 8 9 10 11 12 13 14 15 16 17 18 19 20 21 22 23 24 25 26 27 28 29 30 31 32 33 34 35 36 37 38 39 40 41 42 43 44 45 46 47 48 49 50

000
ASUS45 KCYS 060410
RWRWY

WYOMING REGIONAL WEATHER ROUNDUP
NATIONAL WEATHER SERVICE CHEYENNE WY
1000 PM MDT THU MAY 05 2016

NOTE:  "FAIR" INDICATES FEW OR NO CLOUDS BELOW 12,000 FEET
WITH NO SIGNIFICANT WEATHER AND/OR OBSTRUCTIONS TO VISIBILITY.

WYZ001-060500-
YELLOWSTONE NATIONAL PARK

CITY           SKY/WX    TMP DP  RH WIND       PRES   REMARKS
LK YELLOWSTONE   N/A     42  28  57 VRB3      30.17R
W YELLOWSTONE  NOT AVBL

$$
WYZ002>013-054>058-071-098>099-060500-
NORTHERN WYOMING

CITY           SKY/WX    TMP DP  RH WIND       PRES   REMARKS
JACKSON        FAIR      54  34  47 NE6       30.02F
CODY           FAIR      63  36  36 SE3       29.94R
GREYBULL       FAIR      68  31  25 E5        29.87R
WORLAND        FAIR      65  42  43 SE12      29.89R
SHERIDAN       FAIR      56  45  66 CALM      29.91R
BUFFALO        FAIR      62  37  39 W9        29.98R
GILLETTE       FAIR      51  45  79 SW3       29.93R
HULETT         FAIR      68  41  37 CALM      29.94S
NEWCASTLE      FAIR      61  28  29 CALM      29.94R

$$
WYZ014>020-022>026-101>103-060500-
CENTRAL WYOMING

CITY           SKY/WX    TMP DP  RH WIND       PRES   REMARKS
BIG PINEY      FAIR      56  24  29 SE7       30.04R
PINEDALE       FAIR      52  32  46 CALM      30.06R
DUBOIS         FAIR      55  30  38 NW9       30.08R
LANDER         FAIR      62  32  32 W10       29.96R
RIVERTON       FAIR      67  35  30 SE5       29.97R
CASPER         FAIR      57  37  47 CALM      29.99R
DOUGLAS        FAIR      56  41  57 E9        30.00R

$$
WYZ021-027>030-104>119-060500-
SOUTHERN WYOMING

CITY           SKY/WX    TMP DP  RH WIND       PRES   REMARKS
EVANSTON       CLOUDY    59  29  31 S7        30.01R
KEMMERER         N/A     59  27  29 CALM      30.04R
FORT BRIDGER   CLEAR     61  30  31 SE5       30.04R
ROCK SPRINGS   FAIR      59  23  25 SE8       30.02S
DIXON          FAIR      56  32  40 E9        30.06S
RAWLINS        FAIR      53  31  42 E7        30.08R
SARATOGA       FAIR      54  30  40 S9        30.10R
LARAMIE        FAIR      51  36  56 SE10      30.13R
CHEYENNE       FAIR      59  35  40 SW7       30.08R
TORRINGTON     FAIR      62  43  49 E8        29.95R
PINE BLUFFS    FAIR      55  41  58 S10       30.04R

$$



USA.gov is the U.S. government's official web portal to all federal, state and local government web resources and services.